Tracking 18840 objects as of 18-November-2017
HD Live streaming from Space Station
objects crossing your sky now

SL-16 R/B

Track SL-16 R/B now!
10-day predictions
SL-16 R/B is classified as:


NORAD ID: 25407
Int'l Code: 1998-045B
Perigee: 840.2 km
Apogee: 853.5 km
Inclination: 71.0 °
Period: 101.7 minutes
Semi major axis: 7217 km
RCS: 12.0191 m2 (large)
Launch date: July 28, 1998
Source: Commonwealth of Independent States (former USSR) (CIS)
Launch site: TYURATAM MISSILE AND SPACE COMPLEX (TTMTR)

Note: This is a ROCKET BODY
aabbcc
Your satellite tracking list
Your tracking list is empty




NASA's NSSDC Master Catalog

Two Line Element Set (TLE):
1 25407U 98045B   17321.61217007 -.00000270 +00000-0 -11292-3 0  9991
2 25407 071.0120 079.0124 0009188 319.4723 040.5715 14.15767725997629
Source of the keplerian elements: AFSPC